GWF666 UASK-UACC

Flight info

Callsign GWF666
Flight time 1h 13m
Altitude 43000
Route LIRNA1D LIRNA L994 EDANO EDANO1D
Aircraft C750/M-SBDE3FGHRWXY/S

Departure

Time 2026-04-22 15:12
Airport Oskemen International Airport (UASK)

Arrival

Time 2026-04-22 16:25
Airport Nursultan Nazarbayev International Airport (UACC)
Time Latitude Longitude Altitude Speed Heading
2026-04-22 15:06 50.02707 82.50698 945 ft 0 kts 133°
2026-04-22 15:09 50.02704 82.50702 946 ft 3 kts 133°
2026-04-22 15:09 50.02703 82.50717 943 ft 0 kts 75°
2026-04-22 15:09 50.02724 82.50722 948 ft 9 kts 331°
2026-04-22 15:10 50.02740 82.50694 955 ft 0 kts 307°
2026-04-22 15:10 50.02745 82.50685 951 ft 6 kts 314°
2026-04-22 15:10 50.02807 82.50634 941 ft 13 kts 351°
2026-04-22 15:10 50.02888 82.50628 929 ft 12 kts 360°
2026-04-22 15:11 50.02970 82.50606 938 ft 10 kts 327°
2026-04-22 15:11 50.02981 82.50586 943 ft 0 kts 307°
2026-04-22 15:11 50.03046 82.50470 939 ft 58 kts 311°
2026-04-22 15:11 50.03557 82.49548 955 ft 153 kts 311°
2026-04-22 15:12 50.04283 82.48271 1573 ft 164 kts 313°
2026-04-22 15:12 50.05079 82.46858 2180 ft 183 kts 309°
2026-04-22 15:12 50.05922 82.45290 2885 ft 194 kts 308°
2026-04-22 15:12 50.06813 82.43644 3671 ft 204 kts 307°
2026-04-22 15:13 50.07779 82.41889 4250 ft 225 kts 308°
2026-04-22 15:13 50.08817 82.40020 5058 ft 228 kts 308°
2026-04-22 15:13 50.09852 82.38147 5855 ft 230 kts 308°
2026-04-22 15:13 50.10904 82.36232 6566 ft 235 kts 308°
2026-04-22 15:14 50.11966 82.34298 7386 ft 235 kts 308°
2026-04-22 15:14 50.13027 82.32365 8260 ft 235 kts 308°
2026-04-22 15:14 50.14090 82.30428 9130 ft 236 kts 307°
2026-04-22 15:14 50.15159 82.28479 9918 ft 237 kts 307°
2026-04-22 15:15 50.16237 82.26513 10578 ft 239 kts 308°
2026-04-22 15:15 50.17316 82.24543 11264 ft 239 kts 308°
2026-04-22 15:15 50.18402 82.22559 11929 ft 241 kts 308°
2026-04-22 15:15 50.19490 82.20568 12606 ft 242 kts 309°
2026-04-22 15:16 50.20584 82.18564 13251 ft 243 kts 309°
2026-04-22 15:16 50.21653 82.16508 13839 ft 245 kts 303°
2026-04-22 15:16 50.22172 82.13970 14333 ft 249 kts 276°
2026-04-22 15:16 50.22149 82.11281 14952 ft 248 kts 269°
2026-04-22 15:17 50.22064 82.08582 15494 ft 250 kts 269°
2026-04-22 15:17 50.21988 82.05858 16048 ft 252 kts 269°
2026-04-22 15:17 50.21919 82.03118 16621 ft 254 kts 269°
2026-04-22 15:17 50.21847 82.00353 17206 ft 256 kts 269°
2026-04-22 15:18 50.21772 81.97568 17803 ft 258 kts 269°
2026-04-22 15:18 50.21695 81.94764 18372 ft 260 kts 270°
2026-04-22 15:18 50.21619 81.91936 18900 ft 261 kts 270°
2026-04-22 15:18 50.21540 81.89088 19437 ft 263 kts 270°
2026-04-22 15:19 50.21461 81.86235 19980 ft 264 kts 270°
2026-04-22 15:19 50.21381 81.83399 20511 ft 266 kts 269°
2026-04-22 15:19 50.21299 81.80509 21044 ft 267 kts 269°
2026-04-22 15:19 50.21216 81.77598 21579 ft 269 kts 269°
2026-04-22 15:20 50.21160 81.75623 21935 ft 270 kts 269°
2026-04-22 15:20 50.21047 81.71721 22622 ft 273 kts 269°
2026-04-22 15:20 50.20960 81.68756 23119 ft 275 kts 269°
2026-04-22 15:20 50.20871 81.65770 23606 ft 276 kts 270°
2026-04-22 15:21 50.20782 81.62767 24022 ft 278 kts 270°
2026-04-22 15:21 50.20690 81.59741 24431 ft 280 kts 270°
2026-04-22 15:21 50.20598 81.56700 24836 ft 281 kts 270°
2026-04-22 15:21 50.20505 81.53642 25226 ft 283 kts 270°
2026-04-22 15:22 50.20409 81.50559 25611 ft 285 kts 270°
2026-04-22 15:22 50.20313 81.47456 26002 ft 287 kts 270°
2026-04-22 15:22 50.20215 81.44342 26395 ft 288 kts 270°
2026-04-22 15:22 50.20115 81.41203 26789 ft 290 kts 270°
2026-04-22 15:23 50.20016 81.38051 27177 ft 292 kts 270°
2026-04-22 15:23 50.20214 81.34912 27480 ft 291 kts 284°
2026-04-22 15:23 50.20668 81.31833 27901 ft 292 kts 284°
2026-04-22 15:23 50.21096 81.28727 28282 ft 294 kts 284°
2026-04-22 15:24 50.21526 81.25551 28429 ft 310 kts 284°
2026-04-22 15:24 50.21998 81.22143 28473 ft 332 kts 284°
2026-04-22 15:24 50.22503 81.18509 28534 ft 353 kts 283°
2026-04-22 15:24 50.23031 81.14668 28579 ft 372 kts 283°
2026-04-22 15:25 50.23584 81.10613 28625 ft 390 kts 283°
2026-04-22 15:25 50.24163 81.06380 28665 ft 407 kts 283°
2026-04-22 15:25 50.24765 81.01963 28701 ft 423 kts 283°
2026-04-22 15:25 50.25379 80.97442 29219 ft 426 kts 283°
2026-04-22 15:26 50.25992 80.92905 29783 ft 429 kts 283°
2026-04-22 15:26 50.26611 80.88326 30244 ft 432 kts 283°
2026-04-22 15:26 50.27231 80.83720 30679 ft 434 kts 283°
2026-04-22 15:26 50.27852 80.79086 31182 ft 434 kts 283°
2026-04-22 15:27 50.28467 80.74488 31953 ft 429 kts 282°
2026-04-22 15:27 50.28870 80.71471 32502 ft 426 kts 282°
2026-04-22 15:27 50.29468 80.66970 33267 ft 422 kts 282°
2026-04-22 15:27 50.30062 80.62491 33986 ft 419 kts 282°
2026-04-22 15:28 50.30650 80.58043 34579 ft 417 kts 282°
2026-04-22 15:28 50.31235 80.53605 35133 ft 416 kts 282°
2026-04-22 15:28 50.31818 80.49171 35693 ft 415 kts 282°
2026-04-22 15:28 50.32396 80.44752 36253 ft 415 kts 282°
2026-04-22 15:29 50.32973 80.40335 36821 ft 414 kts 282°
2026-04-22 15:29 50.33547 80.35920 37396 ft 413 kts 282°
2026-04-22 15:29 50.34118 80.31522 37977 ft 412 kts 282°
2026-04-22 15:30 50.35274 80.22749 38981 ft 411 kts 284°
2026-04-22 15:30 50.36033 80.18423 39376 ft 412 kts 285°
2026-04-22 15:30 50.36792 80.14102 39808 ft 412 kts 285°
2026-04-22 15:30 50.37536 80.09761 40225 ft 413 kts 285°
2026-04-22 15:31 50.38281 80.05419 40652 ft 413 kts 285°
2026-04-22 15:31 50.39034 80.01067 41090 ft 414 kts 285°
2026-04-22 15:31 50.39786 79.96713 41527 ft 414 kts 285°
2026-04-22 15:31 50.40533 79.92350 41965 ft 415 kts 285°
2026-04-22 15:32 50.41279 79.87977 42396 ft 415 kts 285°
2026-04-22 15:32 50.42026 79.83603 42819 ft 415 kts 285°
2026-04-22 15:32 50.42779 79.79185 42868 ft 425 kts 285°
2026-04-22 15:33 50.44329 79.70038 42888 ft 443 kts 285°
2026-04-22 15:33 50.45938 79.60505 42885 ft 460 kts 285°
2026-04-22 15:34 50.47595 79.50616 42893 ft 473 kts 284°
2026-04-22 15:34 50.49255 79.40645 42889 ft 475 kts 284°
2026-04-22 15:35 50.50924 79.30584 42889 ft 476 kts 284°
2026-04-22 15:35 50.52580 79.20539 42889 ft 474 kts 284°
2026-04-22 15:36 50.54222 79.10507 42888 ft 474 kts 284°
2026-04-22 15:36 50.55860 79.00463 42891 ft 474 kts 284°
2026-04-22 15:37 50.57487 78.90412 42890 ft 474 kts 284°
2026-04-22 15:37 50.59108 78.80351 42884 ft 474 kts 284°
2026-04-22 15:38 50.60718 78.70289 42887 ft 474 kts 284°
2026-04-22 15:38 50.63115 78.55197 42888 ft 474 kts 284°
2026-04-22 15:39 50.64702 78.45128 42888 ft 473 kts 283°
2026-04-22 15:39 50.66280 78.35054 42885 ft 474 kts 283°
2026-04-22 15:40 50.67849 78.24974 42877 ft 473 kts 283°
2026-04-22 15:40 50.69409 78.14895 42878 ft 473 kts 283°
2026-04-22 15:41 50.70957 78.04816 42877 ft 473 kts 283°
2026-04-22 15:41 50.72499 77.94716 42893 ft 475 kts 283°
2026-04-22 15:42 50.74035 77.84590 42876 ft 474 kts 283°
2026-04-22 15:42 50.75559 77.74481 42859 ft 473 kts 283°
2026-04-22 15:43 50.77076 77.64357 42863 ft 473 kts 283°
2026-04-22 15:43 50.78584 77.54224 42861 ft 474 kts 283°
2026-04-22 15:44 50.80084 77.44080 42858 ft 474 kts 283°
2026-04-22 15:44 50.81574 77.33939 42863 ft 474 kts 282°
2026-04-22 15:45 50.83048 77.23851 42856 ft 474 kts 282°
2026-04-22 15:45 50.84520 77.13713 42855 ft 473 kts 282°
2026-04-22 15:46 50.85983 77.03565 42849 ft 473 kts 282°
2026-04-22 15:46 50.87438 76.93403 42846 ft 473 kts 282°
2026-04-22 15:47 50.88885 76.83235 42850 ft 473 kts 282°
2026-04-22 15:47 50.90321 76.73069 42857 ft 473 kts 282°
2026-04-22 15:48 50.91749 76.62906 42836 ft 472 kts 282°
2026-04-22 15:48 50.92786 76.52641 42848 ft 473 kts 276°
2026-04-22 15:49 50.93599 76.42296 42846 ft 472 kts 277°
2026-04-22 15:49 50.94384 76.31955 42840 ft 472 kts 277°
2026-04-22 15:50 50.95167 76.21615 42838 ft 472 kts 277°
2026-04-22 15:50 50.95936 76.11292 42837 ft 471 kts 276°
2026-04-22 15:51 50.96697 76.00961 42839 ft 471 kts 276°
2026-04-22 15:51 50.97446 75.90690 42846 ft 472 kts 276°
2026-04-22 15:52 50.98188 75.80339 42847 ft 472 kts 276°
2026-04-22 15:52 50.98923 75.69996 42858 ft 472 kts 276°
2026-04-22 15:53 50.99648 75.59656 42858 ft 472 kts 276°
2026-04-22 15:53 51.00364 75.49298 42853 ft 472 kts 276°
2026-04-22 15:54 51.01071 75.38932 42850 ft 472 kts 276°
2026-04-22 15:54 51.01769 75.28578 42851 ft 472 kts 276°
2026-04-22 15:55 51.02458 75.18211 42851 ft 472 kts 276°
2026-04-22 15:55 51.03138 75.07844 42858 ft 472 kts 276°
2026-04-22 15:56 51.03471 75.02726 42844 ft 457 kts 276°
2026-04-22 15:56 51.03794 74.97717 42844 ft 458 kts 275°
2026-04-22 15:56 51.04431 74.87698 42846 ft 459 kts 275°
2026-04-22 15:57 51.05068 74.77594 42868 ft 460 kts 275°
2026-04-22 15:57 51.05695 74.67482 42844 ft 459 kts 275°
2026-04-22 15:58 51.06312 74.57385 42847 ft 459 kts 275°
2026-04-22 15:58 51.06921 74.47285 42844 ft 459 kts 275°
2026-04-22 15:59 51.07521 74.37177 42843 ft 459 kts 275°
2026-04-22 15:59 51.08112 74.27081 42783 ft 454 kts 275°
2026-04-22 16:00 51.08398 74.22166 42171 ft 439 kts 275°
2026-04-22 16:00 51.08673 74.17401 41594 ft 426 kts 274°
2026-04-22 16:00 51.08936 74.12782 41048 ft 413 kts 274°
2026-04-22 16:00 51.09189 74.08292 40512 ft 403 kts 274°
2026-04-22 16:01 51.09438 74.03871 39988 ft 400 kts 274°
2026-04-22 16:01 51.09683 73.99475 39466 ft 399 kts 274°
2026-04-22 16:01 51.09927 73.95073 38942 ft 399 kts 274°
2026-04-22 16:01 51.10169 73.90688 38396 ft 398 kts 274°
2026-04-22 16:02 51.10408 73.86307 37836 ft 398 kts 274°
2026-04-22 16:02 51.10646 73.81912 37310 ft 399 kts 274°
2026-04-22 16:02 51.10884 73.77506 36786 ft 399 kts 274°
2026-04-22 16:02 51.11120 73.73103 36257 ft 400 kts 274°
2026-04-22 16:03 51.11356 73.68688 35729 ft 401 kts 274°
2026-04-22 16:03 51.11589 73.64264 35190 ft 402 kts 274°
2026-04-22 16:03 51.11818 73.59889 34673 ft 402 kts 274°
2026-04-22 16:03 51.12049 73.55450 34169 ft 403 kts 274°
2026-04-22 16:04 51.12279 73.51011 33587 ft 403 kts 274°
2026-04-22 16:04 51.12508 73.46548 33042 ft 406 kts 274°
2026-04-22 16:04 51.12736 73.42050 32507 ft 409 kts 274°
2026-04-22 16:04 51.12966 73.37512 31961 ft 412 kts 274°
2026-04-22 16:05 51.13120 73.34432 31593 ft 414 kts 274°
2026-04-22 16:05 51.13424 73.28344 30866 ft 418 kts 273°
2026-04-22 16:05 51.13652 73.23704 30314 ft 423 kts 273°
2026-04-22 16:05 51.13879 73.19065 29736 ft 420 kts 273°
2026-04-22 16:06 51.14104 73.14451 29167 ft 416 kts 273°
2026-04-22 16:06 51.14325 73.09872 28621 ft 413 kts 273°
2026-04-22 16:06 51.14541 73.05334 28078 ft 410 kts 273°
2026-04-22 16:06 51.14754 73.00812 27535 ft 407 kts 273°
2026-04-22 16:07 51.14661 72.96334 26980 ft 404 kts 262°
2026-04-22 16:07 51.13951 72.92021 26470 ft 403 kts 252°
2026-04-22 16:07 51.13045 72.87813 25944 ft 401 kts 252°
2026-04-22 16:07 51.12151 72.83627 25415 ft 399 kts 252°
2026-04-22 16:08 51.11271 72.79452 24890 ft 396 kts 253°
2026-04-22 16:08 51.10390 72.75300 24363 ft 394 kts 252°
2026-04-22 16:08 51.09507 72.71183 23850 ft 392 kts 252°
2026-04-22 16:08 51.08628 72.67083 23319 ft 391 kts 252°
2026-04-22 16:09 51.07756 72.63010 22775 ft 388 kts 252°
2026-04-22 16:09 51.06888 72.58962 22260 ft 386 kts 252°
2026-04-22 16:09 51.06022 72.54942 21758 ft 383 kts 252°
2026-04-22 16:09 51.05159 72.50942 21247 ft 381 kts 252°
2026-04-22 16:10 51.04301 72.46974 20747 ft 379 kts 252°
2026-04-22 16:10 51.03457 72.43072 20253 ft 377 kts 251°
2026-04-22 16:10 51.02882 72.40418 19920 ft 376 kts 251°
2026-04-22 16:10 51.01757 72.35243 19263 ft 373 kts 251°
2026-04-22 16:11 51.00912 72.31361 18773 ft 371 kts 251°
2026-04-22 16:11 51.00070 72.27502 18286 ft 369 kts 251°
2026-04-22 16:11 50.99229 72.23655 17767 ft 367 kts 251°
2026-04-22 16:11 50.98392 72.19835 17279 ft 365 kts 251°
2026-04-22 16:12 50.97830 72.17270 16948 ft 363 kts 251°
2026-04-22 16:12 50.97012 72.13548 16482 ft 361 kts 251°
2026-04-22 16:12 50.96186 72.09796 16011 ft 359 kts 251°
2026-04-22 16:12 50.95365 72.06073 15540 ft 357 kts 251°
2026-04-22 16:13 50.94547 72.02372 15071 ft 354 kts 251°
2026-04-22 16:13 50.93735 71.98699 14608 ft 352 kts 251°
2026-04-22 16:13 50.92925 71.95047 14137 ft 350 kts 251°
2026-04-22 16:13 50.92121 71.91421 13685 ft 348 kts 251°
2026-04-22 16:14 50.91319 71.87813 13200 ft 346 kts 251°
2026-04-22 16:14 50.90521 71.84234 12744 ft 343 kts 251°
2026-04-22 16:14 50.89729 71.80684 12293 ft 340 kts 250°
2026-04-22 16:14 50.88942 71.77163 11846 ft 338 kts 250°
2026-04-22 16:15 50.88159 71.73660 11402 ft 336 kts 250°
2026-04-22 16:15 50.87412 71.70325 11139 ft 300 kts 250°
2026-04-22 16:15 50.86751 71.67372 10804 ft 273 kts 250°
2026-04-22 16:15 50.86129 71.64607 10469 ft 269 kts 250°
2026-04-22 16:16 50.85499 71.61821 10125 ft 270 kts 250°
2026-04-22 16:16 50.84869 71.59026 9776 ft 270 kts 250°
2026-04-22 16:16 50.84238 71.56230 9401 ft 270 kts 250°
2026-04-22 16:16 50.83607 71.53441 9041 ft 269 kts 250°
2026-04-22 16:17 50.82976 71.50654 8691 ft 269 kts 250°
2026-04-22 16:17 50.82345 71.47871 8334 ft 268 kts 250°
2026-04-22 16:17 50.81717 71.45103 7981 ft 267 kts 250°
2026-04-22 16:17 50.81091 71.42348 7629 ft 266 kts 250°
2026-04-22 16:18 50.80466 71.39601 7282 ft 264 kts 250°
2026-04-22 16:18 50.79850 71.36900 6934 ft 264 kts 250°
2026-04-22 16:18 50.79227 71.34170 6586 ft 263 kts 250°
2026-04-22 16:18 50.78718 71.31401 6201 ft 260 kts 262°
2026-04-22 16:19 50.78896 71.28728 5895 ft 233 kts 284°
2026-04-22 16:19 50.79604 71.26515 5988 ft 229 kts 302°
2026-04-22 16:19 50.80694 71.24692 5998 ft 229 kts 313°
2026-04-22 16:19 50.81811 71.22916 6010 ft 227 kts 311°
2026-04-22 16:20 50.83025 71.21306 5945 ft 232 kts 330°
2026-04-22 16:20 50.84560 71.20856 5961 ft 223 kts 359°
2026-04-22 16:20 50.86056 71.21611 5965 ft 232 kts 29°
2026-04-22 16:20 50.87282 71.23303 5997 ft 235 kts 44°
2026-04-22 16:21 50.88354 71.25024 5439 ft 208 kts 44°
2026-04-22 16:21 50.89338 71.26549 4785 ft 189 kts 43°
2026-04-22 16:21 50.90277 71.27998 4011 ft 187 kts 44°
2026-04-22 16:21 50.91177 71.29398 3855 ft 185 kts 44°
2026-04-22 16:22 50.92993 71.32221 3396 ft 184 kts 44°
2026-04-22 16:22 50.93918 71.33652 3151 ft 183 kts 44°
2026-04-22 16:22 50.94834 71.35089 2904 ft 182 kts 44°
2026-04-22 16:23 50.96660 71.37901 2420 ft 179 kts 45°
2026-04-22 16:23 50.97552 71.39301 2166 ft 179 kts 45°
2026-04-22 16:23 50.98445 71.40691 1942 ft 180 kts 45°
2026-04-22 16:24 50.99285 71.41995 1713 ft 154 kts 46°
2026-04-22 16:24 51.00676 71.44172 1338 ft 137 kts 46°
2026-04-22 16:24 51.01348 71.45219 1176 ft 131 kts 46°
2026-04-22 16:25 51.01852 71.45991 1167 ft 45 kts 45°
2026-04-22 16:25 51.02173 71.46169 1162 ft 21 kts
2026-04-22 16:25 51.02314 71.46221 1164 ft 20 kts
2026-04-22 16:26 51.02427 71.46125 1164 ft 18 kts 346°
2026-04-22 16:26 51.02474 71.46170 1164 ft 6 kts 167°
2026-04-22 16:26 51.02464 71.46180 1164 ft 0 kts 145°